Simultaneous Nadir Overpasses (SNOs) Predictions

Prediction of SNOs between FY3D and AQUA Satellite Orbit:

Table of predicted SNOs for the next 14.0 days since TLE Epoch: 1/13/2024
Index Date (FY3D) Time (FY3D) Lat,Lon (FY3D) SZA (FY3D ) Date (AQUA) Time (AQUA) Lat,Lon (AQUA) SZA (AQUA ) Distance(km) Time Diff (sec)
1 01/15/2024 01:50:49 79.26, 132.18 101.21 01/15/2024 01:51:24 79.25, 132.27 101.18 1.96 35
2 01/15/2024 02:41:23 -78.87, -57.60 79.36 01/15/2024 02:40:37 -78.87, -57.71 79.34 2.28 46
3 01/17/2024 14:45:26 79.22, -61.11 100.68 01/17/2024 14:45:58 79.21, -61.06 100.66 1.04 32
4 01/17/2024 15:36:05 -78.99, 107.88 79.65 01/17/2024 15:35:15 -78.99, 107.99 79.65 2.52 50
5 01/20/2024 03:40:02 79.18, 105.56 100.12 01/20/2024 03:40:30 79.18, 105.52 100.11 0.92 28
6 01/20/2024 04:30:40 -78.92, -85.19 80.27 01/20/2024 04:29:46 -78.92, -85.19 80.25 0.11 54
7 01/22/2024 16:34:42 79.25, -88.60 99.67 01/22/2024 16:35:04 79.24, -88.48 99.65 2.63 22
8 01/22/2024 17:25:19 -78.95, 80.95 80.77 01/22/2024 17:24:19 -78.94, 81.08 80.77 3.05 60
9 01/25/2024 05:29:17 79.16, 78.50 98.95 01/25/2024 05:29:33 79.16, 78.45 98.95 1.23 16



Historial Predications of SNOs between FY3D and AQUA
